Location: Burzi?i
(45.0869°N, 16.0577°E)
Time: 11:39:35
(UTC+00:00)

Cosmos 1953 Rocket - Pass Details

Date: 29 October 2020
Orbit: 605 x 634 km, 82.5° (Epoch: 28 November)

Event Time Altitude Azimuth Distance (km) Brightness Sun altitude
Rises 16:33:14 0° 350° (N) 2,905 7.0 -8.6°
Reaches altitude 10° 16:35:28 10° 350° (N) 1,999 6.2 -9.0°
Maximum altitude 16:39:54 86° 265° (W) 633 3.6 -9.8°
Drops below altitude 10° 16:44:21 10° 175° (S) 2,000 6.2 -10.5°
Sets 16:46:34 0° 174° (S) 2,906 7.1 -10.9°
